This demonstration page uses our WeatherBlox Daily Observations layout. Learn more.

Left ArrowRight Arrow

39.92423, -83.80882

Hourly Observations for June 15, 2018

Temp ( °F °C ) Dew Point ( °F °C ) Humidity (%) Winds ( mph kmh ) Pressure ( in mb ) Visibility ( mi km ) Precip ( " mm )
12:56 am 00:56 Clear 63 17.2 59 15 87 87 N N/A 30.03 1017 10 16 N/A
1:56 am 01:56 Clear 62 16.7 57 13.9 84 84 N N/A 30.04 1017 10 16 N/A
2:56 am 02:56 Clear 60 15.6 57 13.9 90 90 N N/A 30.05 1018 10 16 N/A
3:56 am 03:56 Clear 62 16.7 58 14.4 86 86 N N/A 30.05 1018 10 16 N/A
4:56 am 04:56 Clear 61 16.1 58 14.4 90 90 N N/A 30.06 1018 10 16 N/A
5:56 am 05:56 Clear 59 15 57 13.9 93 93 N N/A 30.08 1019 10 16 N/A
6:56 am 06:56 Sunny 60 15.6 59 15 96 96 N N/A 30.08 1019 10 16 N/A
7:56 am 07:56 Sunny 65 18.3 61 16.1 87 87 N N/A 30.08 1019 10 16 N/A
8:56 am 08:56 Sunny 72 22.2 61 16.1 68 68 N N/A 30.07 1018 10 16 N/A
9:56 am 09:56 Sunny 76 24.4 60 15.6 58 58 VRB 5 7 30.05 1018 10 16 N/A
10:56 am 10:56 Sunny 78 25.6 59 15 52 52 S 6 9 30.04 1017 10 16 N/A
11:56 am 11:56 Sunny 80 26.7 57 13.9 45 45 SSW 6 9 30.06 1018 10 16 N/A
12:56 pm 12:56 Sunny 81 27.2 56 13.3 42 42 SSW 5 7 30.06 1018 10 16 N/A
1:56 pm 13:56 Sunny 83 28.3 56 13.3 40 40 N 6 9 30.05 1018 10 16 N/A
2:56 pm 14:56 Sunny 83 28.3 54 12.2 37 37 VRB 5 7 30.03 1017 10 16 N/A
3:56 pm 15:56 Sunny 83 28.3 59 15 44 44 E 6 9 30.01 1016 10 16 N/A
4:56 pm 16:56 Sunny 82 27.8 57 13.9 42 42 N N/A 30.01 1016 10 16 N/A
5:56 pm 17:56 Sunny 82 27.8 59 15 46 46 E 7 11 30.01 1016 10 16 N/A
6:56 pm 18:56 Sunny 82 27.8 58 14.4 44 44 SE 5 7 30.00 1016 10 16 N/A
7:56 pm 19:56 Sunny 80 26.7 60 15.6 51 51 ESE 3 6 29.99 1016 10 16 N/A
8:56 pm 20:56 Sunny 75 23.9 62 16.7 64 64 N N/A 29.99 1016 10 16 N/A
9:56 pm 21:56 Clear 71 21.7 64 17.8 79 79 SE 6 9 30.00 1016 10 16 N/A
10:56 pm 22:56 Clear 73 22.8 62 16.7 69 69 SSE 6 9 30.02 1017 10 16 N/A
11:56 pm 23:56 Clear 73 22.8 61 16.1 66 66 S 7 11 30.03 1017 10 16 N/A

Powered by AerisWeather